Weather History for Cedar Rapids, IA

Change the Weather History Date:

Monday, April 14, 2014

  Actual Average Record
Temperature  
Mean Temperature 34 °F 49 °F  
Max Temperature 41 °F 60 °F 88 °F (2003)
Min Temperature 27 °F 37 °F 20 °F (1950)
Degree Days  
Heating Degree Days 31 17  
Month to date heating degree days 270 267  
Since 1 July heating degree days 7379 6431  
Cooling Degree Days 0 0  
Month to date cooling degree days 4 0  
Year to date cooling degree days 4 0  
Moisture  
Dew Point 24 °F    
Average Humidity 68    
Maximum Humidity 89    
Minimum Humidity 47    
Precipitation  
Precipitation 0.10 in 0.10 in 1.13 in (2012)
Month to date precipitation 4.07 1.26  
Year to date precipitation 6.21 5.50  
Sea Level Pressure  
Sea Level Pressure 29.89 in    
Wind  
Wind Speed 20 mph (NNW)    
Max Wind Speed 35 mph    
Max Gust Speed 41 mph    
Visibility 9 miles    
Events Rain , Snow    
T = Trace of Precipitation, MM = Missing Value Source: NWS Daily Summary

Daily Weather History Graph

Daily Weather History Graph

Search for Another Location

Airport:

Trip Planner

Search our weather history database for the weather conditions in past years. The results will help you decide how hot, cold, wet, or windy it might be!

Date:

Astronomy

Apr. 14, 2014 Rise Set
Actual Time 6:28 AM CDT 7:46 PM CDT
Civil Twilight 5:59 AM CDT 8:15 PM CDT
Nautical Twilight 5:24 AM CDT 8:50 PM CDT
Astronomical Twilight 4:48 AM CDT 9:27 PM CDT
Moon 7:25 PM CDT (4/14) 6:01 AM CDT (4/14)
Length of Visible Light 14h 16m
Length of Day
13h 18m
Full, 100% of the Moon is Illuminated
Apr 14
Full
Apr 15
Full
Apr 22
Last Quarter
Apr 29
New
May 6
First Quarter

Hourly Weather History & Observations

Time (CDT) Temp. Windchill Dew Point Humidity Pressure Visibility Wind Dir Wind Speed Gust Speed Precip Events Conditions
12:52 AM 41.0 °F 30.9 °F - N/A% 29.55 in 6.0 mi North 24.2 mph 33.4 mph 0.05 in Rain Light Rain
1:43 AM 37.9 °F 26.1 °F - N/A% 29.62 in 6.0 mi NNW 27.6 mph 40.3 mph 0.08 in Rain Light Rain
1:52 AM 37.0 °F 24.9 °F - N/A% 29.64 in 8.0 mi NNW 27.6 mph 38.0 mph 0.08 in Rain Light Rain
2:23 AM 34.0 °F 20.3 °F - N/A% 29.65 in 4.0 mi NNW 29.9 mph 39.1 mph 0.01 in Snow Light Snow
2:36 AM 35.1 °F 21.6 °F - N/A% 29.65 in 4.0 mi NNW 31.1 mph 41.4 mph 0.02 in Snow Light Snow
2:52 AM 35.1 °F 22.0 °F - N/A% 29.66 in 6.0 mi North 28.8 mph 40.3 mph 0.02 in Snow Light Snow
3:52 AM 33.8 °F 21.3 °F - N/A% 29.68 in 8.0 mi NNW 24.2 mph 33.4 mph N/A   Overcast
4:52 AM 34.0 °F 20.5 °F 30.0 °F 85% 29.72 in 9.0 mi North 28.8 mph 38.0 mph 0.00 in Snow Light Snow
5:52 AM 34.0 °F 21.8 °F - N/A% 29.80 in 9.0 mi NNW 23.0 mph 31.1 mph 0.00 in Snow Light Snow
6:52 AM 34.0 °F 21.5 °F 28.0 °F 79% 29.83 in 10.0 mi North 24.2 mph 35.7 mph 0.00 in   Overcast
7:52 AM 33.1 °F 19.1 °F 30.0 °F 89% 29.86 in 10.0 mi North 29.9 mph - N/A   Overcast
8:52 AM 32.0 °F 18.4 °F 27.0 °F 82% 29.92 in 10.0 mi NNW 26.5 mph 34.5 mph N/A   Overcast
9:52 AM 32.0 °F 20.8 °F 27.0 °F 82% 29.96 in 7.0 mi NNW 17.3 mph 29.9 mph 0.00 in Snow Light Snow
10:52 AM 33.1 °F 20.1 °F 27.0 °F 78% 29.98 in 10.0 mi North 25.3 mph 29.9 mph 0.00 in   Overcast
11:52 AM 34.0 °F 23.0 °F 28.0 °F 79% 30.00 in 10.0 mi NNW 18.4 mph - N/A   Overcast
12:52 PM 33.8 °F 21.3 °F 26.6 °F 75% 29.97 in 10.0 mi North 24.2 mph 32.2 mph N/A   Overcast
1:52 PM 34.0 °F 22.7 °F 24.1 °F 67% 30.01 in 10.0 mi NNW 19.6 mph 27.6 mph N/A   Overcast
2:52 PM 35.1 °F 23.8 °F 24.1 °F 64% 30.02 in 10.0 mi NW 20.7 mph 29.9 mph N/A   Overcast
3:52 PM 35.6 °F 24.0 °F 23.0 °F 60% 29.98 in 10.0 mi NNW 23.0 mph 28.8 mph N/A   Mostly Cloudy
4:52 PM 34.0 °F 22.7 °F 23.0 °F 64% 30.02 in 10.0 mi NW 19.6 mph 26.5 mph N/A   Overcast
5:52 PM 35.1 °F 23.8 °F 21.9 °F 59% 30.04 in 10.0 mi NW 20.7 mph 28.8 mph N/A   Mostly Cloudy
6:52 PM 35.1 °F 23.8 °F 18.0 °F 50% 30.05 in 10.0 mi NNW 20.7 mph 27.6 mph N/A   Mostly Cloudy
7:52 PM 33.1 °F 23.9 °F 19.0 °F 56% 30.06 in 10.0 mi NNW 12.7 mph - N/A   Scattered Clouds
8:52 PM 32.0 °F 23.6 °F 19.9 °F 61% 30.08 in 10.0 mi NNW 10.4 mph - N/A   Mostly Cloudy
9:52 PM 30.9 °F 22.2 °F 19.0 °F 61% 30.10 in 10.0 mi NNW 10.4 mph - N/A   Clear
10:52 PM 30.0 °F 20.5 °F 19.0 °F 64% 30.11 in 10.0 mi NW 11.5 mph - N/A   Clear
11:52 PM 28.9 °F 19.8 °F 19.0 °F 67% 30.11 in 10.0 mi NW 10.4 mph - N/A   Clear